Terminal Aerodrome Forecast
Issued by NWS

Home | Current Version | Previous Version | Text Only | Print | Product List | Glossary Off
Versions: 1 2 3 4 5 6 7 8 9 10 11 12 13

000
FTUS43 KBIS 141100
TAFDIK
TAF
KDIK 141138Z 1412/1512 28006KT P6SM SCT100
     FM141600 33006KT P6SM SCT080
     FM150200 VRB05KT P6SM SKC=

USA.gov is the U.S. government's official web portal to all federal, state and local government web resources and services.